| time (UTC) | temp F | wind direction | speed MPH | gust MPH | rain 1hr in | rain 24hr in | rain mn in | humidity % | barometer mb |
| 20260503203049 | 56 | 315 | 3.0 | 4.0 | 0.00 | 0.00 | 0.00 | 27 | 1017.6 |
| 20260503202047 | 55 | 360 | 5.0 | 5.0 | 0.00 | 0.00 | 0.00 | 29 | 1017.6 |
| 20260503201047 | 57 | 315 | 5.0 | 7.0 | 0.00 | 0.00 | 0.00 | 27 | 1018.0 |
| 20260503200047 | 55 | 360 | 3.0 | 5.0 | 0.00 | 0.00 | 0.00 | 28 | 1018.0 |
| 20260503195049 | 55 | 23 | 4.0 | 5.0 | 0.00 | 0.00 | 0.00 | 30 | 1018.3 |
| 20260503194047 | 54 | 315 | 4.0 | 6.0 | 0.00 | 0.00 | 0.00 | 31 | 1018.3 |
| 20260503193047 | 54 | 315 | 4.0 | 5.0 | 0.00 | 0.00 | 0.00 | 31 | 1018.3 |
| 20260503192047 | 53 | 315 | 6.0 | 7.0 | 0.00 | 0.00 | 0.00 | 31 | 1018.3 |
| 20260503191047 | 53 | 360 | 4.0 | 5.0 | 0.00 | 0.00 | 0.00 | 30 | 1018.3 |
| 20260503190048 | 54 | 338 | 3.0 | 5.0 | 0.00 | 0.00 | 0.00 | 31 | 1018.7 |
| 20260503185047 | 54 | 315 | 3.0 | 4.0 | 0.00 | 0.00 | 0.00 | 34 | 1018.7 |
| 20260503184047 | 55 | 338 | 3.0 | 4.0 | 0.00 | 0.00 | 0.00 | 32 | 1019.0 |
| 20260503183047 | 50 | 338 | 6.0 | 7.0 | 0.00 | 0.00 | 0.00 | 34 | 1018.7 |
| 20260503182047 | 53 | 338 | 3.0 | 5.0 | 0.00 | 0.00 | 0.00 | 35 | 1019.0 |
| 20260503181049 | 52 | 293 | 4.0 | 5.0 | 0.00 | 0.00 | 0.00 | 36 | 1018.7 |
| 20260503180047 | 51 | 338 | 4.0 | 5.0 | 0.00 | 0.00 | 0.00 | 35 | 1019.0 |
| 20260503175047 | 52 | 315 | 5.0 | 5.0 | 0.00 | 0.00 | 0.00 | 35 | 1018.7 |
| 20260503174047 | 51 | 293 | 5.0 | 6.0 | 0.00 | 0.00 | 0.00 | 35 | 1019.0 |
| 20260503173047 | 49 | 360 | 5.0 | 6.0 | 0.00 | 0.00 | 0.00 | 37 | 1019.0 |
| 20260503172049 | 50 | 315 | 4.0 | 5.0 | 0.00 | 0.00 | 0.00 | 36 | 1019.0 |
| 20260503171047 | 47 | 293 | 6.0 | 8.0 | 0.00 | 0.00 | 0.00 | 38 | 1019.0 |
| 20260503131049 | 37 | 293 | 5.0 | 5.0 | 0.00 | 0.00 | 0.00 | 60 | 1019.3 |
| 20260503081047 | 33 | 338 | 4.0 | 5.0 | 0.00 | 0.00 | 0.00 | 81 | 1016.3 |
| 20260503072047 | 32 | 360 | 4.0 | 5.0 | 0.00 | 0.00 | 0.00 | 84 | 1016.3 |
| 20260503071049 | 32 | 360 | 4.0 | 5.0 | 0.00 | 0.00 | 0.00 | 84 | 1016.3 |
| 20260503055049 | 34 | 338 | 5.0 | 5.0 | 0.00 | 0.00 | 0.00 | 81 | 1016.0 |
| 20260503054047 | 34 | 360 | 5.0 | 6.0 | 0.00 | 0.00 | 0.00 | 81 | 1016.3 |
| 20260503053047 | 34 | 360 | 4.0 | 5.0 | 0.00 | 0.00 | 0.00 | 81 | 1016.0 |
| 20260503052049 | 34 | 360 | 4.0 | 4.0 | 0.00 | 0.00 | 0.00 | 80 | 1016.0 |
| 20260503051046 | 34 | 338 | 4.0 | 5.0 | 0.00 | 0.00 | 0.00 | 81 | 1016.0 |
| 20260503050050 | 34 | 315 | 5.0 | 7.0 | 0.00 | 0.00 | 0.00 | 80 | 1016.0 |
| 20260503045047 | 35 | 360 | 5.0 | 6.0 | 0.00 | 0.00 | 0.00 | 80 | 1016.3 |
| 20260503044047 | 35 | 360 | 5.0 | 6.0 | 0.00 | 0.00 | 0.00 | 79 | 1016.3 |
| 20260503043050 | 35 | 23 | 6.0 | 7.0 | 0.00 | 0.00 | 0.00 | 78 | 1016.0 |
| 20260503042047 | 35 | 360 | 4.0 | 5.0 | 0.00 | 0.00 | 0.00 | 77 | 1016.6 |
| 20260503041047 | 36 | 23 | 5.0 | 6.0 | 0.00 | 0.00 | 0.00 | 76 | 1016.6 |
| 20260503040047 | 36 | 360 | 6.0 | 7.0 | 0.00 | 0.00 | 0.00 | 75 | 1016.3 |
| 20260503035047 | 36 | 360 | 5.0 | 7.0 | 0.00 | 0.00 | 0.00 | 74 | 1016.3 |
| 20260503034047 | 36 | 360 | 5.0 | 5.0 | 0.00 | 0.00 | 0.00 | 73 | 1016.3 |
| 20260503033047 | 36 | 23 | 5.0 | 6.0 | 0.00 | 0.00 | 0.00 | 72 | 1016.3 |
| 20260503032047 | 37 | 23 | 5.0 | 7.0 | 0.00 | 0.00 | 0.00 | 70 | 1016.0 |
| 20260503031049 | 37 | 338 | 6.0 | 7.0 | 0.00 | 0.00 | 0.00 | 69 | 1016.3 |
| 20260503030047 | 38 | 23 | 5.0 | 7.0 | 0.00 | 0.00 | 0.00 | 67 | 1016.3 |
| 20260503025048 | 38 | 360 | 6.0 | 7.0 | 0.00 | 0.00 | 0.00 | 66 | 1016.3 |
| 20260503024047 | 39 | 293 | 5.0 | 7.0 | 0.00 | 0.00 | 0.00 | 65 | 1016.3 |
| 20260503023047 | 39 | 360 | 5.0 | 6.0 | 0.00 | 0.00 | 0.00 | 63 | 1016.6 |
| 20260503022047 | 40 | 360 | 4.0 | 5.0 | 0.00 | 0.00 | 0.00 | 61 | 1016.3 |
| 20260503021048 | 40 | 360 | 2.0 | 3.0 | 0.00 | 0.00 | 0.00 | 59 | 1016.6 |
| 20260503020051 | 40 | 45 | 2.0 | 3.0 | 0.00 | 0.00 | 0.00 | 58 | 1016.6 |
| 20260503015047 | 41 | 360 | 3.0 | 5.0 | 0.00 | 0.00 | 0.00 | 56 | 1016.3 |
| 20260503014047 | 41 | 360 | 4.0 | 5.0 | 0.00 | 0.00 | 0.00 | 56 | 1016.6 |
| 20260503013047 | 41 | 338 | 5.0 | 6.0 | 0.00 | 0.00 | 0.00 | 54 | 1016.3 |
| 20260503012047 | 41 | 293 | 3.0 | 5.0 | 0.00 | 0.00 | 0.00 | 53 | 1016.3 |
| 20260503011047 | 41 | 315 | 3.0 | 4.0 | 0.00 | 0.00 | 0.00 | 52 | 1016.3 |
| 20260503010047 | 42 | 338 | 3.0 | 3.0 | 0.00 | 0.00 | 0.00 | 53 | 1016.3 |
| 20260503005047 | 42 | 338 | 5.0 | 6.0 | 0.00 | 0.00 | 0.00 | 51 | 1016.0 |
| 20260503004047 | 42 | 23 | 4.0 | 5.0 | 0.00 | 0.00 | 0.00 | 51 | 1015.6 |
| 20260503003047 | 42 | 360 | 3.0 | 4.0 | 0.00 | 0.00 | 0.00 | 50 | 1016.0 |
| 20260503002046 | 42 | 338 | 3.0 | 4.0 | 0.00 | 0.00 | 0.00 | 50 | 1015.6 |
| 20260503001047 | 42 | 23 | 2.0 | 3.0 | 0.00 | 0.00 | 0.00 | 51 | 1015.3 |
| 20260503000047 | 42 | 360 | 4.0 | 5.0 | 0.00 | 0.00 | 0.00 | 50 | 1015.3 |
| 20260502235047 | 42 | 360 | 3.0 | 3.0 | 0.00 | 0.00 | 0.00 | 51 | 1015.3 |
| 20260502234047 | 43 | 23 | 3.0 | 3.0 | 0.00 | 0.00 | 0.00 | 48 | 1015.3 |
| 20260502233049 | 43 | 315 | 4.0 | 5.0 | 0.00 | 0.00 | 0.00 | 48 | 1014.9 |
| 20260502232047 | 43 | 360 | 5.0 | 6.0 | 0.00 | 0.00 | 0.00 | 48 | 1014.9 |
| 20260502231047 | 44 | 23 | 6.0 | 7.0 | 0.00 | 0.00 | 0.00 | 46 | 1014.9 |
| 20260502230047 | 44 | 338 | 4.0 | 5.0 | 0.00 | 0.00 | 0.00 | 48 | 1014.9 |
| 20260502225047 | 44 | 23 | 4.0 | 5.0 | 0.00 | 0.00 | 0.00 | 48 | 1014.9 |
| 20260502224046 | 44 | 360 | 4.0 | 5.0 | 0.00 | 0.00 | 0.00 | 47 | 1014.9 |
| 20260502223047 | 45 | 338 | 3.0 | 5.0 | 0.00 | 0.00 | 0.00 | 48 | 1014.9 |
| 20260502222047 | 45 | 360 | 5.0 | 7.0 | 0.00 | 0.00 | 0.00 | 47 | 1014.9 |
| 20260502221047 | 45 | 68 | 2.0 | 2.0 | 0.00 | 0.00 | 0.00 | 47 | 1014.9 |
| 20260502220047 | 45 | 338 | 2.0 | 3.0 | 0.00 | 0.00 | 0.00 | 46 | 1014.9 |
| 20260502215048 | 45 | 338 | 2.0 | 3.0 | 0.00 | 0.00 | 0.00 | 46 | 1014.6 |
| 20260502214051 | 45 | 338 | 3.0 | 4.0 | 0.00 | 0.00 | 0.00 | 48 | 1014.9 |
| 20260502213047 | 45 | 23 | 3.0 | 5.0 | 0.00 | 0.00 | 0.00 | 47 | 1014.6 |
| 20260502212047 | 45 | 360 | 3.0 | 5.0 | 0.00 | 0.00 | 0.00 | 48 | 1014.9 |
| 20260502211047 | 46 | 360 | 2.0 | 4.0 | 0.00 | 0.00 | 0.00 | 48 | 1014.6 |
| 20260502210048 | 46 | 23 | 4.0 | 5.0 | 0.00 | 0.00 | 0.00 | 48 | 1014.6 |
| 20260502205048 | 47 | 23 | 2.0 | 2.0 | 0.00 | 0.00 | 0.00 | 48 | 1014.9 |
| 20260502204047 | 47 | 45 | 2.0 | 3.0 | 0.00 | 0.00 | 0.00 | 48 | 1014.9 |